TimeMST,TemperatureF,Dew PointF,Humidity,Sea Level PressureIn,VisibilityMPH,Wind Direction,Wind SpeedMPH,Gust SpeedMPH,PrecipitationIn,Events,Conditions,WindDirDegrees,DateUTC
12:52 AM,28.0,21.0,75,29.92,10.0,West,6.9,-,N/A,,Clear,270,2014-01-03 07:52:00
1:52 AM,27.0,19.9,75,29.90,10.0,West,8.1,-,N/A,,Clear,260,2014-01-03 08:52:00
2:52 AM,25.0,19.0,78,29.87,10.0,WNW,5.8,-,N/A,,Clear,290,2014-01-03 09:52:00
3:52 AM,28.9,21.0,72,29.82,10.0,SW,6.9,-,N/A,,Clear,220,2014-01-03 10:52:00
4:52 AM,27.0,19.0,72,29.79,10.0,WSW,8.1,-,N/A,,Clear,240,2014-01-03 11:52:00
5:52 AM,27.0,19.9,75,29.76,10.0,WSW,5.8,-,N/A,,Clear,240,2014-01-03 12:52:00
6:52 AM,24.1,18.0,77,29.74,10.0,WNW,4.6,-,N/A,,Clear,300,2014-01-03 13:52:00
7:52 AM,26.1,19.9,78,29.70,10.0,WNW,3.5,-,N/A,,Clear,300,2014-01-03 14:52:00
8:52 AM,34.0,23.0,64,29.66,10.0,West,3.5,-,N/A,,Clear,280,2014-01-03 15:52:00
9:52 AM,42.1,26.1,53,29.62,10.0,West,9.2,-,N/A,,Clear,260,2014-01-03 16:52:00
10:52 AM,42.1,26.1,53,29.58,10.0,WSW,10.4,-,N/A,,Clear,240,2014-01-03 17:52:00
11:52 AM,44.1,27.0,51,29.53,10.0,WSW,9.2,-,N/A,,Clear,240,2014-01-03 18:52:00
12:52 PM,44.1,28.0,53,29.49,10.0,West,8.1,-,N/A,,Clear,260,2014-01-03 19:52:00
1:52 PM,45.0,28.0,52,29.48,10.0,WNW,11.5,-,N/A,,Clear,290,2014-01-03 20:52:00
2:52 PM,42.1,30.0,62,29.50,10.0,WSW,6.9,-,N/A,,Clear,240,2014-01-03 21:52:00
3:52 PM,42.1,30.0,62,29.50,10.0,SW,8.1,-,N/A,,Mostly Cloudy,220,2014-01-03 22:52:00
4:52 PM,46.0,27.0,47,29.54,10.0,NNW,5.8,-,N/A,,Overcast,340,2014-01-03 23:52:00
5:52 PM,42.1,33.1,70,29.58,10.0,NE,17.3,21.9,N/A,,Overcast,40,2014-01-04 00:52:00
6:52 PM,37.0,33.1,86,29.66,9.0,North,9.2,-,0.00,Rain,Light Rain,350,2014-01-04 01:52:00
6:59 PM,35.6,33.8,93,29.59,7.0,North,6.9,-,0.01,Rain,Light Rain,360,2014-01-04 01:59:00
7:36 PM,35.6,33.8,93,29.61,9.0,WSW,3.5,-,0.05,Rain,Light Rain,250,2014-01-04 02:36:00
7:45 PM,35.6,33.8,93,29.62,10.0,Calm,Calm,-,0.05,Rain,Light Rain,0,2014-01-04 02:45:00
7:52 PM,35.1,33.1,92,29.71,10.0,Calm,Calm,-,0.05,,Overcast,0,2014-01-04 02:52:00
8:10 PM,33.8,33.8,100,29.63,10.0,SSW,4.6,-,0.00,,Overcast,210,2014-01-04 03:10:00
8:25 PM,33.8,32.0,93,29.63,10.0,South,6.9,-,0.00,,Overcast,190,2014-01-04 03:25:00
8:52 PM,33.1,32.0,96,29.69,10.0,SSW,3.5,-,0.00,,Overcast,200,2014-01-04 03:52:00
9:52 PM,35.1,28.9,78,29.69,10.0,WNW,3.5,-,N/A,,Overcast,290,2014-01-04 04:52:00
10:52 PM,30.0,24.1,79,29.79,10.0,North,23.0,29.9,N/A,,Overcast,350,2014-01-04 05:52:00
11:52 PM,27.0,19.0,72,29.83,10.0,North,23.0,35.7,N/A,,Overcast,350,2014-01-04 06:52:00